Gage, OK

6:37 AM CDT on July 22, 2017 (GMT -0500)
Gage

Weather History for KGAG - April, 2013

Change the Weather History Date:

Tuesday, April 2, 2013

  Actual Average Record
Temperature  
Mean Temperature 34 °F -  
Max Temperature 37 °F 67 °F 91 °F (2003)
Min Temperature 32 °F 39 °F 19 °F (1975)
Degree Days  
Heating Degree Days 30    
Moisture  
Dew Point 31 °F    
Average Humidity 89    
Maximum Humidity 100    
Minimum Humidity 62    
Precipitation  
Precipitation 0.00 in - - ()
Sea Level Pressure  
Sea Level Pressure 30.19 in    
Wind  
Wind Speed 13 mph (NE)    
Max Wind Speed 21 mph    
Max Gust Speed 26 mph    
Visibility 5 miles    
Events Rain    
Averages and records for this station are not official NWS values.
T = Trace of Precipitation, MM = Missing Value Source: NWS Daily Summary

Daily Weather History Graph

Daily Weather History Graph

Search for Another Location

Airport or City:

Trip Planner

Search our weather history database for the weather conditions in past years. The results will help you decide how hot, cold, wet, or windy it might be!

Date:

Astronomy

Apr. 02, 2013 Rise Set
Actual Time 7:23 AM CDT 8:02 PM CDT
Civil Twilight 6:57 AM CDT 8:28 PM CDT
Nautical Twilight 6:26 AM CDT 8:58 PM CDT
Astronomical Twilight 5:55 AM CDT 9:30 PM CDT
Moon 2:01 AM CDT (4/2) 12:23 PM CDT (4/2)
Length of Visible Light 13h 30m
Length of Day
12h 38m
Waning Gibbous, 55% of the Moon is Illuminated
Apr 2
Waning Gibbous
Apr 2
Last Quarter
Apr 10
New
Apr 18
First Quarter
Apr 25
Full

Hourly Weather History & Observations

Time (CDT) Temp. Windchill Dew Point Humidity Pressure Visibility Wind Dir Wind Speed Gust Speed Precip Events Conditions
12:53 AM 35.1 °F 26.4 °F 27.0 °F 72% 30.19 in 10.0 mi NE 12.7 mph - N/A   Clear
1:53 AM 35.1 °F 27.4 °F 26.1 °F 70% 30.19 in 10.0 mi NNE 10.4 mph - N/A   Mostly Cloudy
2:53 AM 36.0 °F 27.1 °F 27.0 °F 70% 30.19 in 10.0 mi NE 13.8 mph - N/A   Overcast
3:53 AM 37.0 °F 28.1 °F 25.0 °F 62% 30.19 in 10.0 mi NE 15.0 mph - N/A   Overcast
4:53 AM 36.0 °F 26.7 °F 24.1 °F 62% 30.19 in 10.0 mi NE 15.0 mph 21.9 mph N/A   Overcast
5:53 AM 36.0 °F 25.0 °F 25.0 °F 64% 30.18 in 10.0 mi ENE 20.7 mph 26.5 mph 0.00 in   Overcast
6:53 AM 35.1 °F 25.9 °F 27.0 °F 72% 30.20 in 10.0 mi ENE 13.8 mph 25.3 mph 0.00 in   Overcast
7:23 AM 33.8 °F 23.5 °F 26.6 °F 75% 30.19 in 10.0 mi ENE 16.1 mph - N/A   Overcast
7:53 AM 33.1 °F 23.0 °F 28.0 °F 82% 30.22 in 10.0 mi ENE 15.0 mph 23.0 mph N/A   Overcast
8:20 AM 33.8 °F 25.3 °F 28.4 °F 81% 30.20 in 10.0 mi NE 11.5 mph - N/A   Overcast
8:53 AM 33.1 °F 23.0 °F 30.0 °F 89% 30.24 in 7.0 mi ENE 15.0 mph 19.6 mph 0.00 in   Overcast
9:09 AM 33.8 °F 25.3 °F 30.2 °F 87% 30.19 in 2.5 mi ENE 11.5 mph - 0.00 in Rain Light Rain
9:53 AM 33.1 °F 24.4 °F 32.0 °F 96% 30.22 in 2.0 mi NE 11.5 mph - 0.00 in Rain Light Rain
10:13 AM 33.8 °F 23.5 °F 32.0 °F 93% 30.19 in 3.0 mi ENE 16.1 mph - 0.00 in   Overcast
10:32 AM 33.8 °F 27.0 °F 32.0 °F 93% 30.20 in 2.5 mi NE 8.1 mph - 0.00 in   Overcast
10:46 AM 33.8 °F 25.3 °F 32.0 °F 93% 30.20 in 1.8 mi NE 11.5 mph - 0.00 in Rain Light Rain
10:53 AM 33.1 °F 23.4 °F 32.0 °F 96% 30.24 in 1.5 mi NE 13.8 mph - 0.00 in Rain Light Rain
11:06 AM 33.8 °F 25.8 °F 33.8 °F 100% 30.20 in 2.0 mi NE 10.4 mph - 0.00 in Rain Light Rain
11:53 AM 34.0 °F 25.0 °F 33.1 °F 96% 30.25 in 2.5 mi NE 12.7 mph - 0.00 in Rain Light Rain
12:01 PM 33.8 °F 25.8 °F 33.8 °F 100% 30.21 in 2.0 mi NE 10.4 mph - 0.00 in Rain Light Rain
12:10 PM 33.8 °F 25.3 °F 33.8 °F 100% 30.21 in 1.8 mi NE 11.5 mph - 0.00 in Rain Light Rain
12:23 PM 33.8 °F 25.3 °F 33.8 °F 100% 30.21 in 2.0 mi NE 11.5 mph - 0.00 in Rain Light Rain
12:53 PM 34.0 °F 24.6 °F 33.1 °F 96% 30.24 in 2.5 mi NNE 13.8 mph - 0.00 in   Overcast
1:53 PM 34.0 °F 24.6 °F 33.1 °F 96% 30.23 in 2.5 mi NE 13.8 mph - 0.00 in Rain Light Rain
2:53 PM 35.1 °F 25.2 °F 33.1 °F 92% 30.20 in 2.5 mi NNE 16.1 mph - 0.00 in   Overcast
3:08 PM 35.6 °F 26.6 °F 33.8 °F 93% 30.17 in 3.0 mi NE 13.8 mph - N/A   Overcast
3:53 PM 34.0 °F 25.0 °F 33.1 °F 96% 30.20 in 3.0 mi NNE 12.7 mph - N/A   Overcast
4:51 PM 33.8 °F 23.9 °F 33.8 °F 100% 30.16 in 2.5 mi NNE 15.0 mph - N/A   Overcast
4:53 PM 34.0 °F 24.6 °F 33.1 °F 96% 30.19 in 2.5 mi NE 13.8 mph - N/A   Overcast
5:31 PM 33.8 °F 24.3 °F 33.8 °F 100% 30.15 in 3.0 mi NE 13.8 mph - N/A   Overcast
5:40 PM 33.8 °F 23.9 °F 33.8 °F 100% 30.14 in 2.5 mi NE 15.0 mph - N/A   Overcast
5:53 PM 34.0 °F 24.2 °F 33.1 °F 96% 30.18 in 2.5 mi NE 15.0 mph - N/A   Overcast
6:01 PM 33.8 °F 23.2 °F 33.8 °F 100% 30.14 in 3.0 mi NE 17.3 mph - N/A   Overcast
6:17 PM 33.8 °F 23.5 °F 32.0 °F 93% 30.15 in 5.0 mi ENE 16.1 mph - N/A   Overcast
6:51 PM 33.8 °F 24.8 °F 33.8 °F 100% 30.15 in 2.5 mi NE 12.7 mph - N/A   Overcast
6:53 PM 34.0 °F 24.2 °F 33.1 °F 96% 30.19 in 2.5 mi NE 15.0 mph - N/A   Overcast
7:42 PM 33.8 °F 23.5 °F 32.0 °F 93% 30.14 in 3.0 mi NE 16.1 mph - N/A   Overcast
7:53 PM 33.1 °F 23.4 °F 32.0 °F 96% 30.19 in 4.0 mi NE 13.8 mph - N/A   Overcast
8:31 PM 33.8 °F 23.9 °F 30.2 °F 87% 30.15 in 10.0 mi ENE 15.0 mph - N/A   Overcast
8:53 PM 33.1 °F 22.6 °F 32.0 °F 96% 30.20 in 5.0 mi NNE 16.1 mph - N/A   Overcast
9:00 PM 33.8 °F 24.8 °F 32.0 °F 93% 30.16 in 5.0 mi NNE 12.7 mph - N/A   Overcast
9:18 PM 32.0 °F 22.1 °F 30.2 °F 93% 30.16 in 8.0 mi NE 13.8 mph - N/A   Overcast
9:34 PM 33.8 °F 25.3 °F 30.2 °F 87% 30.17 in 10.0 mi NE 11.5 mph - N/A   Overcast
9:53 PM 33.1 °F 24.4 °F 30.9 °F 92% 30.22 in 10.0 mi NE 11.5 mph - N/A   Overcast
10:53 PM 33.1 °F 25.5 °F 30.0 °F 89% 30.24 in 10.0 mi NNE 9.2 mph - N/A   Overcast
11:06 PM 33.8 °F 25.8 °F 30.2 °F 87% 30.19 in 10.0 mi NNE 10.4 mph - N/A   Overcast
11:53 PM 34.0 °F 26.6 °F 30.0 °F 85% 30.25 in 10.0 mi NNE 9.2 mph - N/A   Overcast